FW0689 Weather Reports


time (UTC)temp
C
wind
direction
speed
KPH
gust
KPH
rain 1hr
cm
rain 24hr
cm
rain mn
cm
humidity
%
barometer
mb
20260502231714 14 189 0.0 0.0 0.00 0.00 0.00 33 1019.0
20260502230714 14 192 0.0 0.0 0.00 0.00 0.00 34 1019.0
20260502225714 14 202 0.0 0.0 0.00 0.00 0.00 35 1018.6
20260502223714 15 112 0.0 0.0 0.00 0.00 0.00 35 1018.1
20260502222715 15 112 0.0 0.0 0.00 0.00 0.00 35 1018.3
20260502221715 15 202 0.0 0.0 0.00 0.00 0.00 35 1018.4
20260502220714 16 360 0.0 0.0 0.00 0.00 0.00 35 1018.2
20260502215811 16 90 0.0 0.0 0.00 0.00 0.00 34 1018.2
20260502214812 16 22 0.0 0.0 0.00 0.00 0.00 35 1018.7
20260502213812 16 22 0.0 0.0 0.00 0.00 0.00 34 1019.0
20260502212812 16 22 0.0 0.0 0.00 0.00 0.00 34 1019.2
20260502211910 16 55 0.0 0.0 0.00 0.00 0.00 34 1019.4
20260502210911 15 110 0.0 0.0 0.00 0.00 0.00 34 1019.6
20260502205911 15 175 0.0 0.0 0.00 0.00 0.00 34 1019.9
20260502204911 15 360 0.0 0.0 0.00 0.00 0.00 34 1019.0
20260502203927 15 360 0.0 0.0 0.00 0.00 0.00 35 1019.0
20260502203011 16 360 0.0 0.0 0.00 0.00 0.00 35 1019.0
20260502202013 16 337 0.0 0.0 0.00 0.00 0.00 35 1019.1
20260502201012 16 337 0.0 0.0 0.00 0.00 0.00 35 1019.3
20260502200012 16 337 0.0 0.0 0.00 0.00 0.00 35 1019.3
20260502195111 16 337 0.0 0.0 0.00 0.00 0.00 35 1019.4
20260502194112 17 337 0.0 0.0 0.00 0.00 0.00 35 1019.4
20260502193211 17 315 0.0 0.0 0.00 0.00 0.00 35 1019.2
20260502192212 17 337 0.0 0.0 0.00 0.00 0.00 35 1019.1
20260502191211 18 336 0.0 0.0 0.00 0.00 0.00 36 1019.0
20260502190212 18 331 0.0 0.0 0.00 0.00 0.00 38 1018.9
20260502185210 18 316 0.0 0.0 0.00 0.00 0.00 42 1019.0
20260502184213 19 316 0.0 0.0 0.00 0.00 0.00 45 1018.8
20260502183212 20 337 0.0 0.0 0.00 0.00 0.00 47 1018.9
20260502182210 20 318 0.0 0.0 0.00 0.00 0.00 48 1018.9
20260502181211 21 312 0.0 0.0 0.00 0.00 0.00 49 1018.7
20260502170509 22 255 0.0 0.0 0.00 0.00 0.00 48 1019.0
20260502162613 22 291 0.0 0.0 0.00 0.00 0.00 47 1019.4
20260502160612 22 263 0.0 0.0 0.00 0.00 0.00 46 1019.6
20260502151712 22 260 0.0 0.0 0.00 0.00 0.00 47 1020.1
20260502150811 22 236 0.0 0.0 0.00 0.00 0.00 47 1020.2
20260502121012 22 220 0.0 0.0 0.00 0.00 0.00 43 1021.5
20260502115010 22 227 0.0 0.0 0.00 0.00 0.00 42 1021.6
20260502114012 22 241 0.0 0.0 0.00 0.00 0.00 42 1021.8
20260502113012 22 248 0.0 0.0 0.00 0.00 0.00 42 1021.8
20260502112012 22 222 0.0 0.0 0.00 0.00 0.00 42 1021.9
20260502111028 22 222 0.0 0.0 0.00 0.00 0.00 42 1021.9
20260502105011 22 189 0.0 0.0 0.00 0.00 0.00 40 1022.0
20260502104109 22 226 0.0 0.0 0.00 0.00 0.00 40 1022.1
20260502103111 21 182 0.0 0.0 0.00 0.00 0.00 40 1022.2
20260502102113 21 204 0.0 0.0 0.00 0.00 0.00 40 1022.4
20260502101211 21 251 0.0 0.0 0.00 0.00 0.00 40 1022.4
20260502100213 21 229 0.0 0.0 0.00 0.00 0.00 39 1022.7
20260502091310 18 235 0.0 0.0 0.00 0.00 0.00 41 1022.9
20260502070813 16 201 0.0 0.0 0.00 0.00 0.00 45 1023.3
20260502065910 15 197 0.0 0.0 0.00 0.00 0.00 44 1023.5
20260502064911 15 196 0.0 0.0 0.00 0.00 0.00 44 1023.5
20260502064011 15 171 0.0 0.0 0.00 0.00 0.00 43 1023.5
20260502063110 14 160 0.0 0.0 0.00 0.00 0.00 42 1023.4
20260502062112 13 152 0.0 0.0 0.00 0.00 0.00 41 1023.5
20260502061211 13 132 0.0 0.0 0.00 0.00 0.00 41 1023.5
20260502060211 12 180 0.0 0.0 0.00 0.00 0.00 40 1023.6
20260502055212 11 114 0.0 0.0 0.00 0.00 0.00 40 1023.7
20260502054212 10 165 0.0 0.0 0.00 0.00 0.00 40 1023.7
20260502053310 10 119 0.0 0.0 0.00 0.00 0.00 40 1023.6
20260502051311 8 112 0.0 0.0 0.00 0.00 0.00 40 1023.5
20260502050311 7 112 0.0 0.0 0.00 0.00 0.00 41 1023.5
20260502044409 7 112 0.0 0.0 0.00 0.00 0.00 41 1023.5
20260502041411 7 112 0.0 0.0 0.00 0.00 0.00 42 1023.5
20260502035411 7 112 0.0 0.0 0.00 0.00 0.00 42 1023.7
20260502034412 7 112 0.0 0.0 0.00 0.00 0.00 42 1023.8
20260502033511 7 112 0.0 0.0 0.00 0.00 0.00 42 1023.8
20260502032511 7 112 0.0 0.0 0.00 0.00 0.00 42 1023.8
20260502031511 7 112 0.0 0.0 0.00 0.00 0.00 42 1023.8
20260502030509 7 112 0.0 0.0 0.00 0.00 0.00 42 1023.9
20260502025512 7 112 0.0 0.0 0.00 0.00 0.00 42 1024.0
20260502024512 7 112 0.0 0.0 0.00 0.00 0.00 42 1024.0
20260502023509 7 112 0.0 0.0 0.00 0.00 0.00 41 1024.0
20260502022511 7 112 0.0 0.0 0.00 0.00 0.00 42 1024.2
20260502021510 7 112 0.0 0.0 0.00 0.00 0.00 42 1024.1
20260502020511 8 112 0.0 0.0 0.00 0.00 0.00 42 1024.1
20260502014512 8 112 0.0 0.0 0.00 0.00 0.00 42 1024.4
20260502013511 8 112 0.0 0.0 0.00 0.00 0.00 42 1024.5
20260502012610 8 112 0.0 0.0 0.00 0.00 0.00 41 1024.6
20260502011612 7 112 0.0 0.0 0.00 0.00 0.00 41 1024.7
20260502010709 7 112 0.0 0.0 0.00 0.00 0.00 42 1024.7
20260502005711 8 112 0.0 0.0 0.00 0.00 0.00 42 1025.0
20260502004810 8 112 0.0 0.0 0.00 0.00 0.00 42 1025.1
20260502003811 8 112 0.0 0.0 0.00 0.00 0.00 41 1025.1
20260502000009 7 112 0.0 0.0 0.00 0.00 0.00 41 1025.4
20260501235012 7 112 0.0 0.0 0.00 0.00 0.00 41 1025.4
20260501234012 8 112 0.0 0.0 0.00 0.00 0.00 40 1025.4
20260501233110 8 112 0.0 0.0 0.00 0.00 0.00 40 1025.5